Tacoma Narrows, WA
on Monday, January 7, 2013

Monday
Previous Day Next Day
Daily Summary
 ActualAverageRecord
Temperature
Mean Temperature °F °F  
Max Temperature 50°F 43°F 59°F (2002)
Min Temperature 42°F 36°F 32°F (2001)
Degree Days
Heating Degree Days 19    
Moisture
Dew Point 42°F   
Average Humidity 85    
Maximum Humidity 93    
Minimum Humidity 71    
Precipitation
Precipitation 0.09 in in in ()
Wind
Wind Speed 13 mph   
Max Wind Speed 22 mph   
Max Gust Speed 33 mph   
Visibility 9 miles   
Events Rain   
Averages and records for this station are not official NWS values.
Key: T is trace of precipitation, MM is missing value
Source: NWS Daily Summary
Seasonal Weather Averages
Time(PST)TemperatureDew PointHumidity Pressure Visibility Wind DirectionWind SpeedGust SpeedPrecipitationEvents Conditions
12:53 AM 42.1°F 39.0°F 89% 29.97 in 10.0 miles Calm Calm - 0.02 in Rain Light Rain
1:53 AM 42.1°F 39.0°F 89% 29.95 in 10.0 miles SSE 5.8 mph - 0.00 in   Overcast
2:53 AM 43.0°F 39.0°F 86% 29.93 in 8.0 miles South 5.8 mph - 0.01 in Rain Light Rain
3:53 AM 45.0°F 41.0°F 86% 29.90 in 10.0 miles South 16.1 mph 21.9 mph 0.00 in Rain Light Rain
4:53 AM 45.0°F 42.1°F 90% 29.86 in 10.0 miles South 17.3 mph 24.2 mph 0.01 in   Overcast
5:53 AM 45.0°F 41.0°F 86% 29.86 in 10.0 miles SSW 18.4 mph 28.8 mph 0.01 in Rain Light Rain
6:53 AM 45.0°F 42.1°F 90% 29.84 in 10.0 miles South 18.4 mph 27.6 mph 0.02 in   Overcast
7:02 AM 44.6°F 42.8°F 93% 29.84 in 10.0 miles South 19.6 mph 28.8 mph N/A   Overcast
7:09 AM 46.4°F 42.8°F 87% 29.84 in 10.0 miles South 21.9 mph 27.6 mph N/A   Overcast
7:53 AM 46.0°F 42.1°F 86% 29.85 in 10.0 miles South 19.6 mph 28.8 mph N/A   Overcast
8:53 AM 46.9°F 43.0°F 86% 29.87 in 7.0 miles South 17.3 mph 27.6 mph N/A   Overcast
8:58 AM 46.4°F 44.6°F 93% 29.86 in 5.0 miles South 16.1 mph 25.3 mph N/A   Overcast
9:53 AM 48.0°F 45.0°F 89% 29.90 in 5.0 miles South 21.9 mph 33.4 mph 0.00 in Rain Light Rain
10:00 AM 48.2°F 44.6°F 87% 29.90 in 2.5 miles South 19.6 mph 33.4 mph 0.00 in Rain Light Rain
10:53 AM 48.0°F 46.0°F 93% 29.93 in 2.5 miles South 19.6 mph 28.8 mph 0.01 in   Overcast
11:53 AM 48.9°F 46.0°F 90% 29.94 in 4.0 miles SSW 15.0 mph 23.0 mph 0.00 in   Overcast
12:38 PM 48.2°F 46.4°F 93% 29.94 in 10.0 miles SSW 18.4 mph 29.9 mph 0.01 in   Overcast
12:53 PM 48.9°F 45.0°F 86% 29.96 in 9.0 miles SSW 17.3 mph 29.9 mph 0.01 in   Overcast
1:08 PM 50.0°F 44.6°F 82% 29.96 in 10.0 miles SSW 17.3 mph 32.2 mph N/A   Overcast
1:26 PM 48.2°F 44.6°F 87% 29.98 in 10.0 miles SW 13.8 mph 26.5 mph N/A   Overcast
1:43 PM 48.2°F 44.6°F 87% 29.99 in 10.0 miles SSW 17.3 mph 27.6 mph N/A   Overcast
1:53 PM 48.9°F 44.1°F 83% 30.00 in 10.0 miles SSW 17.3 mph 26.5 mph N/A   Overcast
2:53 PM 48.2°F 44.6°F 87% 29.99 in 5.0 miles South 19.6 mph 27.6 mph N/A   Overcast
3:05 PM 48.2°F 44.6°F 87% 30.01 in 8.0 miles SSW 19.6 mph 29.9 mph N/A   Overcast
3:53 PM 48.0°F 44.1°F 86% 30.04 in 10.0 miles SSW 16.1 mph 28.8 mph N/A   Mostly Cloudy
4:45 PM 46.4°F 44.6°F 93% 30.04 in 10.0 miles SSW 16.1 mph 25.3 mph N/A   Overcast
4:53 PM 48.0°F 44.1°F 86% 30.06 in 10.0 miles SSW 15.0 mph 25.3 mph N/A   Overcast
5:45 PM 46.4°F 42.8°F 87% 30.06 in 10.0 miles SSW 19.6 mph 27.6 mph N/A   Mostly Cloudy
5:53 PM 46.9°F 42.1°F 83% 30.07 in 10.0 miles SSW 15.0 mph 27.6 mph N/A   Mostly Cloudy
6:53 PM 46.9°F 39.9°F 77% 30.09 in 10.0 miles SSW 16.1 mph 27.6 mph N/A   Overcast
7:53 PM 46.9°F 39.0°F 74% 30.10 in 10.0 miles SSW 11.5 mph 24.2 mph N/A   Overcast
8:53 PM 46.0°F 39.0°F 76% 30.13 in 10.0 miles SSW 8.1 mph 16.1 mph N/A   Overcast
9:01 PM 46.4°F 37.4°F 71% 30.13 in 10.0 miles SSW 9.2 mph 19.6 mph N/A   Overcast
9:53 PM 46.0°F 39.9°F 79% 30.15 in 10.0 miles South 11.5 mph 18.4 mph N/A   Overcast
10:48 PM 46.4°F 39.2°F 76% 30.15 in 10.0 miles South 12.7 mph - N/A   Overcast
10:53 PM 46.0°F 39.9°F 79% 30.16 in 10.0 miles South 12.7 mph - N/A   Overcast
11:30 PM 46.4°F 39.2°F 76% 30.17 in 10.0 miles SSW 10.4 mph - N/A   Overcast
11:53 PM 46.0°F 39.9°F 79% 30.17 in 10.0 miles South 10.4 mph 19.6 mph N/A   Overcast
Moon Phase
Jan. 07 Jan. 11 Jan. 18 Jan. 26 Feb. 03
Sunrise:07:56 AM (PST) Moon Rise:03:22 AM (PST)1/7
Sunset:04:37 PM (PST) Moon Set:12:56 PM (PST)1/7

Copyright © 2014 The Weather Underground, Inc.